Regional Weather Roundup
Issued by NWS

Home | Current Version | Previous Version | Graphics & Text | Print | Product List | Glossary On
Versions: 1 2 3 4 5 6 7 8 9 10 11 12 13 14 15 16 17 18 19 20 21 22 23 24 25 26 27 28 29 30 31 32 33 34 35 36 37 38 39 40 41 42 43 44 45 46 47 48 49 50
629
ASUS43 KMKX 040311
RWRWI

WISCONSIN REGIONAL WEATHER ROUNDUP
NATIONAL WEATHER SERVICE MILWAUKEE/SULLIVAN WI
1000 PM CDT TUE MAY 03 2016

NOTE: "FAIR" INDICATES FEW OR NO CLOUDS BELOW 12,000 FEET WITH NO
SIGNIFICANT WEATHER AND/OR OBSTRUCTIONS TO VISIBILITY.

WIZ001-002-006>008-014>016-023>028-040400-
NORTHWEST WISCONSIN

CITY           SKY/WX    TMP DP  RH WIND       PRES   REMARKS
SUPERIOR ARPT  CLEAR     54  33  45 N14G25    29.83R
ASHLAND        PTCLDY    48  36  63 NE16G25   29.81R
HAYWARD        CLEAR     55  30  38 N15G28    29.78R
SIREN          CLEAR     58  27  31 NE10      29.78R
CUMBERLAND     CLEAR     54  28  37 N15       29.76R
RICE LAKE      CLEAR     56  31  38 N8        29.76R
CHETEK         CLEAR     52  45  77 CALM      29.75R
LADYSMITH      CLEAR     46  42  87 N3        29.76R
EAU CLAIRE     MOCLDY    51  47  86 NE6       29.72R
MENOMONIE      PTCLDY    56  44  62 NE7       29.73R
NEW RICHMOND   CLEAR     58  27  30 N9        29.76R
OSCEOLA        CLEAR     60  28  30 N10G17    29.79R
$$

WIZ003>005-009-010-017-018-040400-
NORTH CENTRAL WISCONSIN

CITY           SKY/WX    TMP DP  RH WIND       PRES   REMARKS
MANITOWISH WTR CLOUDY    47  39  72 N6        29.74R
ARBOR VITAE    PTCLDY    42  39  89 CALM      29.73R
WOODRUFF       PTCLDY    42  39  89 CALM      29.73R
RHINELANDER    MOCLDY    40  38  93 CALM      29.73R FOG
EAGLE RIVER    MOCLDY    40  40  99 CALM      29.73R FOG
LAND O LAKES   CLOUDY    46  40  80 N8        29.75R
PHILLIPS       CLEAR     41  40  95 NW5       29.73R
TOMAHAWK       FOG       40  39  97 CALM      29.73R VSB 1/2
MEDFORD        FOG       40  40 100 NW3       29.72R VSB 1/4
MERRILL        FOG       41  41 100 CALM      29.72R VSB 1/4
$$

WIZ029-030-035-036-043>047-040400-
CENTRAL WISCONSIN

CITY           SKY/WX    TMP DP  RH WIND       PRES   REMARKS
WAUSAU         PTCLDY    47  44  90 NE5       29.70R
MOSINEE        CLEAR     45  45 100 N3        29.71F
MARSHFIELD     CLOUDY    49  45  86 CALM      29.69F
STEVENS POINT  PTCLDY    45  44  99 CALM      29.70F
WAUPACA        CLOUDY    50  46  87 CALM      29.70F
WAUTOMA        CLOUDY    49  47  93 NE3       29.69F
WISC RAPIDS    CLOUDY    48  46  93 CALM      29.70F
CAMP DOUGLAS   MOCLDY    48  48 100 NE7       29.70R
$$

WIZ011>013-019>022-031-037>040-048>050-040400-
NORTHEAST WISCONSIN

CITY           SKY/WX    TMP DP  RH WIND       PRES   REMARKS
ANTIGO         CLOUDY    42  42  99 CALM      29.71S
SHAWANO        CLOUDY    47  44  89 NW5       29.70S
OCONTO         CLOUDY   N/A N/A N/A CALM      29.68S
STURGEON BAY   CLOUDY    50  45  81 S3        29.71F
GREEN BAY      LGT RAIN  50  47  89 CALM      29.68F
MANITOWOC      RAIN      49  47  93 N10       29.71R
APPLETON       LGT RAIN  48  46  93 N8        29.69F
CLINTONVILLE   CLOUDY    46  45  93 CALM      29.69F
OSHKOSH        HVY RAIN  50  47  89 NW7       29.71F FOG
$$

WIZ032>034-041-042-053>061-040400-
SOUTHWEST WISCONSIN

CITY           SKY/WX    TMP DP  RH WIND       PRES   REMARKS
LA CROSSE      CLOUDY    51  49  92 CALM      29.68R
SPARTA         CLOUDY    49  48  99 CALM      29.70R
VIROQUA        CLOUDY    49  47  94 E3        29.68F
BOSCOBEL       TSTM      52  47  83 N10G24    29.73R
PRAIRIE DU CHI HVY RAIN  56  44  65 N9G43     29.73R
PLATTEVILLE    PTCLDY    56  45  64 SW9       29.66F
$$

WIZ056-057-062-063-064-067-068-040400-
SOUTH CENTRAL WISCONSIN

CITY           SKY/WX    TMP DP  RH WIND       PRES   REMARKS
REEDSBURG      CLOUDY    49  48  94 E3        29.70F
BARABOO/DELLS  MOCLDY    49  45  85 E3        29.70F
LONE ROCK      TSTM      52  47  83 N23G36    29.71R
MINERAL POINT  MOCLDY    59  41  51 SW9G16    29.65F
MADISON        RAIN      51  45  79 N24G49    29.71R
MIDDLETON      CLOUDY    54  45  70 N28G38    29.70R
WATERTOWN      CLOUDY    57  41  55 SW7       29.64F
MONROE         MOCLDY    57  41  54 SW12      29.67F
JANESVILLE     NOT AVBL
$$

WIZ051-052-058>065-066-070>072-040400-
SOUTHEAST WISCONSIN

CITY           SKY/WX    TMP DP  RH WIND       PRES   REMARKS
MILWAUKEE      LGT RAIN  60  41  49 SW12      29.66F
WAUKESHA       DRIZZLE   57  37  47 SW8       29.66F
MILWAUKEE/TIMM LGT RAIN  59  36  41 SW8       29.66F
RACINE         CLOUDY    61  40  45 SW8       29.70F
BURLINGTON     CLOUDY    57  40  54 SW10      29.68F
KENOSHA        CLOUDY    60  41  49 SW8       29.69F
FOND DU LAC    LGT RAIN  51  47  86 N18G25    29.71R
SHEBOYGAN      LGT RAIN  52  45  77 N17       29.68S
WEST BEND      CLOUDY    52  46  82 S3        29.64F
JUNEAU         LGT RAIN  51  46  84 N16G31    29.70R
$$

LSZ147-162-040400-
LAKE SUPERIOR

STATION/POSITION TIME  TEMP    WIND        PRES    WAVE
                       AIR SEA DIR/SP/G            HT/PER
                 (UTC) (F)     (DEG/KT/KT) (MB)    (FT/S)
W MID LAKE BUOY  0250   42 37   20/ 12/ 16 1009.9R   1/ 4
DEVILS ISLAND    0300   45      30/ 23/ 25 1010.3R
SAXON HARBOR     0200   47     350/ 15/ 18 1007.5R
$$

LMZ867-665-643>646-040400-
LAKE MICHIGAN

STATION/POSITION TIME  TEMP    WIND        PRES    WAVE
                       AIR SEA DIR/SP/G            HT/PER
                 (UTC) (F)     (DEG/KT/KT) (MB)    (FT/S)
CHAMBERS ISLAND  0200   49     230/  3/  7 1005.4R
N MID LAKE BUOY  0250   42 39  160/  6/  8 1004.6F   2/ 5
NORTHPORT PIER   0200   44      CALM  /  1 1005.1S
ALGOMA LAKESHORE 0215           CALM  /  3   N/A
KEWAUNEE LAKESHO 0200   45                 1004.9F
SHEBOYGAN LAKESH 0300   49      50/ 12/ 13 1005.0F
PORT WASHINGTON  0240   56     320/  2/  5 1005.8S
S MID LAKE BUOY  0250   46 41  190/ 10/ 12 1005.5F   1/ 3
KENOSHA   LAKESH 0300   62     220/  8/ 11 1005.4F
$$

TC  - TEMPERATURE IN CELSIUS
VSB - VISIBILITY IN STATUTE MILES
WCI - WIND CHILL INDEX
HX  - HEAT INDEX





USA.gov is the U.S. government's official web portal to all federal, state and local government web resources and services.